This is the latest recevied weather packets stored in our database for station/object K1JO. If no packets are shown the sender has not sent any weather packets the latest 10 day(s).
| Time | Temp. | Humidity | Pressure | Rain* | Wind** | Luminosity | Snow |
|---|---|---|---|---|---|---|---|
| 1777392038 | 16.67° C | 45% | 1019.9 hPa | 0 mm | - | 751 W/m² | - |
| 1777391733 | 16.11° C | 44% | 1019.8 hPa | 0 mm | - | 750 W/m² | - |
| 1777391431 | 16.11° C | 46% | 1020 hPa | 0 mm | - | 747 W/m² | - |
| 1777391127 | 16.11° C | 47% | 1019.9 hPa | 0 mm | - | 743 W/m² | - |
| 1777390823 | 15.56° C | 46% | 1019.9 hPa | 0 mm | - | 741 W/m² | - |
| 1777390520 | 15.56° C | 46% | 1019.9 hPa | 0 mm | - | 737 W/m² | - |
| 1777390216 | 15.56° C | 49% | 1019.9 hPa | 0 mm | - | 734 W/m² | - |
| 1777389913 | 15.56° C | 45% | 1019.8 hPa | 0 mm | - | 729 W/m² | - |
| 1777389610 | 15° C | 49% | 1020 hPa | 0 mm | - | 725 W/m² | - |
| 1777389305 | 15° C | 45% | 1019.9 hPa | 0 mm | - | 722 W/m² | - |
| 1777389003 | 15.56° C | 46% | 1020 hPa | 0 mm | - | 718 W/m² | - |
| 1777388700 | 15° C | 46% | 1020 hPa | 0 mm | - | 713 W/m² | - |
| 1777388397 | 15° C | 45% | 1020.2 hPa | 0 mm | - | 707 W/m² | - |
| 1777388097 | 14.44° C | 47% | 1020.2 hPa | 0 mm | - | 702 W/m² | - |
| 1777387793 | 14.44° C | 47% | 1020.4 hPa | 0 mm | - | 696 W/m² | - |
| 1777387490 | 14.44° C | 51% | 1020.4 hPa | 0 mm | - | 690 W/m² | - |
| 1777387185 | 14.44° C | 48% | 1020.5 hPa | 0 mm | - | 684 W/m² | - |
| 1777386881 | 14.44° C | 46% | 1020.7 hPa | 0 mm | - | 677 W/m² | - |
| 1777386578 | 13.89° C | 48% | 1020.7 hPa | 0 mm | - | 669 W/m² | - |
| 1777386275 | 13.89° C | 48% | 1020.9 hPa | 0 mm | - | 662 W/m² | - |
| 1777385972 | 13.89° C | 49% | 1021 hPa | 0 mm | - | 652 W/m² | - |
| 1777385668 | 13.89° C | 50% | 1020.9 hPa | 0 mm | - | 644 W/m² | - |
| 1777385366 | 13.33° C | 49% | 1020.9 hPa | 0 mm | - | 634 W/m² | - |
| 1777385062 | 13.89° C | 46% | 1020.9 hPa | 0 mm | - | 624 W/m² | - |
| 1777384759 | 13.33° C | 50% | 1021 hPa | 0 mm | - | 614 W/m² | - |
* Rain latest hour (hover to see other rain measurements)
** Current wind speed in m/s (hover to see current wind gust speed)